Panakton, Greece

11:46 AM EET on December 10, 2016 (GMT +0200)
Elefsis Air Base

Weather History for LGEL - October, 2012

Change the Weather History Date:

Saturday, October 27, 2012

  Actual Average Record
Temperature  
Mean Temperature 66 °F -  
Max Temperature 77 °F 64 °F 80 °F (2005)
Min Temperature 55 °F 50 °F 42 °F (1997)
Cooling Degree Days 1    
Growing Degree Days 16 (Base 50)    
Moisture  
Dew Point 57 °F    
Average Humidity 68    
Maximum Humidity 88    
Minimum Humidity 47    
Precipitation  
Precipitation 0.00 in - - ()
Sea Level Pressure  
Sea Level Pressure 29.80 in    
Wind  
Wind Speed 5 mph ()    
Max Wind Speed 14 mph    
Max Gust Speed -    
Visibility 6.2 miles    
Events      
Averages and records for this station are not official NWS values.
T = Trace of Precipitation, MM = Missing Value Source: Averaged Metar Reports

Daily Weather History Graph

Daily Weather History Graph

Search for Another Location

Airport or City:

Trip Planner

Search our weather history database for the weather conditions in past years. The results will help you decide how hot, cold, wet, or windy it might be!

Date:

Astronomy

Oct. 27, 2012 Rise Set
Actual Time 7:46 AM EEST 6:32 PM EEST
Civil Twilight 7:19 AM EEST 6:59 PM EEST
Nautical Twilight 6:48 AM EEST 7:30 PM EEST
Astronomical Twilight 6:17 AM EEST 8:00 PM EEST
Moon 5:07 PM EEST (10/27) 5:24 AM EEST (10/27)
Length of Visible Light 11h 39m
Length of Day
10h 45m
Waxing Gibbous, 94% of the Moon is Illuminated
Oct 27
Waxing Gibbous
Oct 29
Full
Nov 7
Last Quarter
Nov 14
New
Nov 20
First Quarter

Hourly Weather History & Observations

Time (EEST) Temp. Dew Point Humidity Pressure Visibility Wind Dir Wind Speed Gust Speed Precip Events Conditions
12:50 AM 60.8 °F 53.6 °F 77% 29.86 in - North 6.9 mph - N/A   Clear
1:50 AM 59.0 °F 51.8 °F 77% 29.86 in - North 6.9 mph - N/A   Clear
2:50 AM 59.0 °F 51.8 °F 77% 29.86 in - North 5.8 mph - N/A   Clear
3:50 AM 57.2 °F 51.8 °F 82% 29.83 in - North 4.6 mph - N/A   Clear
4:50 AM 57.2 °F 51.8 °F 82% 29.83 in - NNW 4.6 mph - N/A   Clear
5:50 AM 57.2 °F 51.8 °F 82% 29.83 in - North 4.6 mph - N/A   Clear
6:20 AM 57.2 °F 51.8 °F 82% 29.83 in - North 4.6 mph - N/A   Clear
6:50 AM 55.4 °F 51.8 °F 88% 29.83 in - Variable 3.5 mph - N/A   Clear
7:20 AM 55.4 °F 51.8 °F 88% 29.83 in - Calm Calm - N/A   Clear
7:50 AM 57.2 °F 51.8 °F 82% 29.83 in - Calm Calm - N/A   Clear
8:20 AM 57.2 °F 53.6 °F 88% 29.83 in - Calm Calm - N/A   Clear
8:50 AM 60.8 °F 53.6 °F 77% 29.83 in - Calm Calm - N/A   Clear
9:20 AM 64.4 °F 55.4 °F 73% 29.83 in - Calm Calm - N/A   Clear
9:50 AM 66.2 °F 53.6 °F 64% 29.83 in - Calm Calm - N/A   Clear
10:20 AM 69.8 °F 55.4 °F 60% 29.83 in - Calm Calm - N/A   Clear
10:50 AM 71.6 °F 55.4 °F 57% 29.83 in - Calm Calm - N/A   Clear
11:20 AM 71.6 °F 57.2 °F 60% 29.83 in - Calm Calm - N/A   Clear
11:50 AM 73.4 °F 55.4 °F 53% 29.80 in - SSE 6.9 mph - N/A   Clear
12:20 PM 73.4 °F 55.4 °F 53% 29.80 in - SSE 6.9 mph - N/A   Clear
12:50 PM 73.4 °F 55.4 °F 53% 29.80 in 6.2 mi Calm Calm - N/A   Mostly Cloudy
1:20 PM 73.4 °F 57.2 °F 57% 29.80 in 6.2 mi South 9.2 mph - N/A   Mostly Cloudy
1:50 PM 73.4 °F 57.2 °F 57% 29.80 in 6.2 mi SSE 8.1 mph - N/A   Scattered Clouds
2:20 PM 75.2 °F 57.2 °F 53% 29.80 in 6.2 mi SSE 8.1 mph - N/A   Scattered Clouds
2:50 PM 75.2 °F 55.4 °F 50% 29.77 in 6.2 mi SE 8.1 mph - N/A   Mostly Cloudy
3:20 PM 77.0 °F 55.4 °F 47% 29.77 in 6.2 mi SE 8.1 mph - N/A   Scattered Clouds
3:50 PM 77.0 °F 59.0 °F 54% 29.74 in 6.2 mi SSE 11.5 mph - N/A   Scattered Clouds
4:20 PM 77.0 °F 60.8 °F 57% 29.74 in 6.2 mi SSE 11.5 mph - N/A   Scattered Clouds
4:50 PM 77.0 °F 59.0 °F 54% 29.74 in 6.2 mi SSE 13.8 mph - N/A   Mostly Cloudy
5:20 PM 75.2 °F 62.6 °F 65% 29.74 in 6.2 mi SSE 13.8 mph - N/A   Mostly Cloudy
5:50 PM 75.2 °F 62.6 °F 65% 29.74 in 6.2 mi SSE 11.5 mph - N/A   Mostly Cloudy
6:50 PM 73.4 °F 62.6 °F 69% 29.74 in 6.2 mi SSE 11.5 mph - N/A   Mostly Cloudy
7:20 PM 73.4 °F 62.6 °F 69% 29.74 in 6.2 mi South 13.8 mph - N/A   Mostly Cloudy
7:50 PM 73.4 °F 64.4 °F 73% 29.77 in 6.2 mi SSE 11.5 mph - N/A   Scattered Clouds
8:20 PM 73.4 °F 62.6 °F 69% 29.77 in 6.2 mi SSE 11.5 mph - N/A   Scattered Clouds
8:50 PM 73.4 °F 62.6 °F 69% 29.77 in 6.2 mi SSE 6.9 mph - N/A   Scattered Clouds
9:20 PM 73.4 °F 62.6 °F 69% 29.77 in 6.2 mi SSE 5.8 mph - N/A   Scattered Clouds
9:50 PM 73.4 °F 62.6 °F 69% 29.77 in 6.2 mi South 4.6 mph - N/A   Scattered Clouds
10:20 PM 73.4 °F 64.4 °F 73% 29.77 in 6.2 mi SSE 4.6 mph - N/A   Scattered Clouds
10:50 PM 73.4 °F 64.4 °F 73% 29.77 in 6.2 mi SSE 9.2 mph - N/A   Scattered Clouds
11:20 PM 73.4 °F 64.4 °F 73% 29.77 in 6.2 mi SSE 9.2 mph - N/A   Scattered Clouds
11:50 PM 73.4 °F 64.4 °F 73% 29.77 in 6.2 mi ESE 5.8 mph - N/A   Scattered Clouds